Hourly Data Report for October 17, 2015

All times are specified in Local Standard Time (LST). Add 1 hour to adjust for Daylight Saving Time where and when it is observed.

BATHURST A
NEW BRUNSWICK

47°37'47.000" N
65°44'20.000" W
58.80 m
8100505
71574
ZBF

Download Data

Hourly Data (October 2015)
Hourly Data Report for October 17, 2015
Temp Definition
°C
Dew Point Temp Definition
°C
Rel Hum Definition
%
Wind Dir Definition
10's deg

Wind Spd Definition
km/h
Visibility Definition
km
Stn Press Definition
kPa
Hmdx Definition


Wind Chill Definition


Weather Definition


TIME
00:00 Legend Double Dagger -0.4 -2.8 84 28 9 24.1 100.44   -4 LegendNANA
01:00 Legend Double Dagger -0.8 -2.2 90 27 10 24.1 100.44   -4 LegendNANA
02:00 Legend Double Dagger -0.5 -2.3 88 27 12 24.1 100.45   -4 Clear
03:00 Legend Double Dagger -1.1 -2.5 90 27 5 24.1 100.43   -3 LegendNANA
04:00 Legend Double Dagger -1.5 -2.5 93 23 7 24.1 100.45   -4 LegendNANA
05:00 Legend Double Dagger -2.1 -3.1 93 25 7 24.1 100.49   -5 Clear
06:00 Legend Double Dagger -2.0 -3.0 93 36 3 24.1 100.55   -3 LegendNANA
07:00 Legend Double Dagger -3.0 -3.6 96 24 5 16.1 100.55   -5 LegendNANA
08:00 Legend Double Dagger 0.5 -1.3 88 27 8 24.1 100.57     Mainly Clear
09:00 Legend Double Dagger 2.6 -0.5 80 27 13 24.1 100.62     LegendNANA
10:00 Legend Double Dagger 4.3 -0.5 71 25 10 24.1 100.60     LegendNANA
11:00 Legend Double Dagger 6.1 -2.5 54 26 10 24.1 100.60     Mainly Clear
12:00 Legend Double Dagger 6.2 -4.0 48 28 10 24.1 100.52     LegendNANA
13:00 Legend Double Dagger 7.0 -5.4 41 31 12 24.1 100.50     LegendNANA
14:00 Legend Double Dagger 6.5 -5.5 42 30 12 24.1 100.48     Cloudy
15:00 Legend Double Dagger 5.7 -3.1 53 26 9 24.1 100.48     LegendNANA
16:00 Legend Double Dagger 3.3 -0.7 75 30 12 24.1 100.52     LegendNANA
17:00 Legend Double Dagger 2.1 0.6 90 29 9 16.1 100.56     Rain,Snow
18:00 Legend Double Dagger 1.5 0.6 94 30 4 16.1 100.59     Rain,Snow
19:00 Legend Double Dagger 1.7 0.7 93 29 5 16.1 100.59     Rain,Snow
20:00 Legend Double Dagger 1.9 0.7 92 30 6 19.3 100.61     Rain
21:00 Legend Double Dagger 1.9 0.7 92 32 3 16.1 100.63     Rain,Snow
22:00 Legend Double Dagger 1.8 0.8 93 30 5 19.3 100.63     Rain
23:00 Legend Double Dagger 1.7 0.1 89 31 8 16.1 100.63     Rain,Snow

Notes on Data Quality.

Legend

  • E = Estimated
  • M = Missing
  • NA = Not Available
  • ‡ = Partner data that is not subject to review by the National Climate Archives
Date modified: